User: anonymous   Login
Location: NJAA Observatory
(40.6819°N, 74.8979°W)
Time: 03:07:11
(UTC-04:00)
Language:

Cosmos 220 Rocket - Orbit

View from above orbital plane
View from above orbital plane
View from above satellite
View from above satellite

Ground track
Ground track

The orbit data is extracted from the following two-line orbital elements,

1 03230U 68040B   16241.17026537  .00000324  00000-0  37496-4 0  9993
2 03230  74.0353 109.5229 0029934 141.4086 218.9244 14.89922896591879
Epoch (UTC): 28 August 2016 04:05:10
Eccentricity: 0.0029934
inclination: 74.0353°
perigee height: 577 km
apogee height: 619 km
right ascension of ascending node: 109.5229°
argument of perigee: 141.4086°
revolutions per day: 14.89922896
mean anomaly at epoch: 218.9244°
orbit number at epoch: 59187

The dashed part of the orbit path shows where the satellite is in the earth's shadow,  

DLR